Home   Weather   Nome   Past weeks

Flag for USA Past Weather in Nome, Alaska, USA — Yesterday and Last 2 Weeks

Now
-20 °F

Overcast.


Feels Like: -35 °F
Forecast: -28 / -20 °F
Wind: 6 mph from North

Location: Nome Airport

Current Time: Jan 18, 2017 at 11:43:42 am

Latest Report: Jan 18, 2017 at 10:53 am


Visibility: 9 mi

Pressure: 29.58 "Hg

Humidity: 81%

Dew Point: -24 °F

Location of NomeLocation

Past Weather in Nome — Graph

°F

Nome Temperature Yesterday

Maximum temperature yesterday: -18 °F (at 7:53 pm)
Minimum temperature yesterday: -26 °F (at 10:53 am)
Average temperature yesterday: -22 °F

High & Low Weather Summary for the Past Weeks

 TemperatureHumidityPressure
High31 °F (Jan 4, 3:53 pm)100% (Jan 3, 11:04 am)31.04 "Hg (Jan 3, 11:04 am)
Low-26 °F (Jan 17, 10:53 am)59% (Jan 13, 12:53 pm)28.05 "Hg (Jan 5, 11:53 am)
Average6 °F84%30.08 "Hg
* Reported Jan 3 9:15 am — Jan 18 9:53 am, Nome, Weather by CustomWeather, © 2017

Note: Actual official high and low records may vary slightly from our data, if they occured in-between our weather recording intervals... More about our weather records

Advertising

Nome Weather History for the Previous 24 Hours

Scroll right to see more
 ConditionsComfort  
Time TempWeatherWind HumidityBarometerVisibility
9:53 am
Wed, Jan 18
-23 °FPartly cloudy.6 mph77%29.57 "Hg7 mi
8:53 am-26 °FPassing clouds.No wind81%29.57 "Hg10 mi
7:53 am-23 °FPassing clouds.3 mph81%29.56 "Hg7 mi
6:53 am-24 °FIce fog.No wind85%29.56 "Hg5 mi
5:53 am-24 °FPassing clouds.No wind85%29.56 "Hg10 mi
4:53 am-24 °FClear.No wind81%29.57 "Hg10 mi
3:53 am-25 °FOvercast.No wind81%29.57 "Hg10 mi
2:53 am-26 °FClear.No wind81%29.58 "Hg10 mi
1:53 am-26 °FClear.No wind81%29.58 "Hg10 mi
12:53 am-25 °FClear.No wind81%29.57 "Hg10 mi
11:53 pm
Tue, Jan 17
-23 °FClear.No wind77%29.56 "Hg10 mi
10:53 pm-21 °FClear.No wind80%29.55 "Hg10 mi
9:53 pm-21 °FClear.6 mph80%29.54 "Hg10 mi
8:53 pm-19 °FClear.7 mph77%29.54 "Hg10 mi
7:53 pm-18 °FClear.7 mph77%29.52 "Hg10 mi
6:53 pm-19 °FClear.5 mph80%29.52 "Hg10 mi
5:53 pm-19 °FPassing clouds.6 mph80%29.52 "Hg10 mi
4:53 pm-21 °FSunny.3 mph80%29.50 "Hg10 mi
3:53 pm-19 °FSunny.5 mph72%29.50 "Hg10 mi
2:53 pm-22 °FSunny.No wind81%29.50 "Hg10 mi
1:53 pm-21 °FSunny.No wind76%29.51 "Hg10 mi
12:53 pm-23 °FSunny.No wind73%29.50 "Hg10 mi
11:53 am-22 °FScattered clouds.No wind81%29.49 "Hg10 mi
Weather by CustomWeather, © 2017

See weather overviewHow to use our weather pages